Wind_Speed
40 36 34 30 26 24 22 21 22 20 19 19 21 22 24 26 28 30 31 34 34 31 33 35 38 39 38 38 38 39 41 40 42 46 50 55 57 60 63 71 74 78 78 77 73 69 75 78 82 81 88 87 86 86
37 34 31 27 24 22 21 20 20 20 20 21 22 22 24 25 27 27 30 28 29 25 31 32 34 34 35 35 36 37 39 38 40 45 48 54 57 59 61 65 71 74 77 79 77 75 79 83 83 82 83 92 90 88
34 31 29 26 25 24 23 22 22 22 22 22 23 24 24 26 27 28 26 26 23 24 30 29 27 29 32 33 34 35 35 37 40 41 47 53 56 56 61 62 69 72 74 77 82 80 78 83 86 86 84 84 83 88
31 29 28 27 27 27 26 25 24 24 24 25 26 26 27 27 28 28 25 22 22 22 24 23 27 27 27 30 32 32 36 37 37 41 44 49 52 53 58 60 63 69 72 74 78 87 89 83 83 85 87 86 85 85
29 29 28 28 28 25 23 24 26 28 28 28 27 29 29 29 29 28 23 19 22 23 23 26 25 25 25 26 28 30 32 33 35 37 40 46 49 50 53 56 63 64 70 72 77 82 83 85 89 86 89 90 92 93
29 28 28 23 24 27 29 31 33 33 33 33 33 32 31 30 30 28 24 22 24 22 23 21 22 22 22 24 26 28 29 30 33 37 40 45 48 49 51 56 58 57 64 70 74 83 83 79 87 88 88 87 87 88
26 24 23 23 26 28 28 27 27 27 29 31 33 34 33 32 29 30 31 26 21 21 22 20 20 20 19 20 22 26 27 29 31 33 38 42 46 47 50 51 54 56 59 64 72 75 75 77 82 84 86 87 86 86
22 21 20 21 20 21 21 22 23 25 28 28 31 34 34 35 34 35 31 20 21 20 19 18 20 20 18 18 20 24 25 28 32 36 39 41 43 47 49 52 54 56 57 59 63 67 72 75 77 81 81 82 82 83
17 17 18 15 14 15 17 19 22 24 25 26 28 30 34 37 39 40 27 24 22 20 20 20 20 18 16 17 19 22 24 26 30 34 37 38 41 45 50 53 56 59 59 62 62 62 66 68 71 75 76 78 78 79
12 11 9 11 10 12 14 17 19 20 22 25 26 28 30 36 40 39 28 24 23 19 19 18 18 18 18 19 19 21 21 23 26 29 31 33 36 41 45 50 53 56 59 61 62 64 67 68 69 72 73 74 76 77
9 9 9 7 7 7 10 13 17 21 22 24 26 28 31 35 38 32 27 24 23 19 17 18 19 18 17 18 19 20 22 25 26 27 29 31 36 40 45 48 51 53 55 57 59 61 64 66 68 70 72 74 75 75
7 6 4 5 5 8 11 13 15 19 21 22 24 26 29 30 31 27 24 25 24 20 18 17 17 17 17 18 19 19 22 23 25 27 29 32 38 42 43 43 44 47 50 53 55 58 61 65 67 69 71 72 72 72
6 5 6 7 9 10 11 14 16 16 17 19 20 23 26 26 25 24 24 27 28 25 23 20 18 18 17 16 16 17 20 23 24 26 28 33 37 37 39 42 45 48 50 52 54 56 59 61 63 65 66 67 67 66
9 9 10 10 12 15 15 16 17 19 19 22 23 25 27 29 30 33 35 34 29 24 22 21 19 18 16 16 18 20 21 21 24 26 26 28 31 36 37 40 42 45 47 49 52 54 55 56 56 56 57 58 58 58
13 13 13 14 14 16 18 19 19 20 22 21 21 22 25 27 28 26 26 26 26 24 21 18 16 16 17 17 18 17 18 20 21 24 25 27 29 32 35 38 41 44 46 48 50 52 53 55 57 58 60 60 60 60
18 18 17 17 18 20 20 21 21 21 22 22 21 22 22 25 26 27 27 27 26 23 20 18 16 15 14 16 15 16 17 18 20 21 21 22 23 23 23 24 26 28 30 33 35 37 39 41 42 44 46 49 51 52
22 23 21 21 22 23 23 25 25 25 25 23 23 22 21 20 21 22 21 23 23 21 19 18 17 15 15 18 19 18 18 16 16 16 16 17 18 19 20 21 24 26 28 29 30 31 33 35 36 38 40 41 43 44
25 27 26 27 27 27 28 29 28 27 27 26 25 25 23 23 24 23 23 21 21 19 17 16 16 15 14 12 11 9 9 8 10 13 15 18 21 23 24 26 28 30 32 33 35 37 39 40 41 42 44 45 46 47
28 30 30 30 31 32 32 32 31 31 31 31 29 28 28 28 27 26 25 24 22 20 18 17 14 11 7 3 2 5 8 11 13 15 18 20 23 26 29 31 34 36 38 40 42 44 46 47 49 50 51 51 52 52
35 34 34 34 35 36 37 37 36 35 35 34 34 34 32 31 31 30 28 26 23 20 17 13 9 5 2 3 5 8 12 15 19 23 26 29 32 35 37 39 42 45 47 49 50 51 52 53 54 55 55 55 56 57
39 38 37 36 37 37 38 39 40 41 39 37 36 34 33 31 30 28 25 21 18 14 11 7 3 2 5 9 13 17 21 24 27 30 33 37 40 43 45 47 49 51 53 54 54 54 53 53 52 51 51 51 51 52
39 40 40 39 39 39 39 38 38 37 35 33 31 30 29 27 25 22 20 16 13 10 6 1 4 8 12 15 19 23 27 30 33 36 40 43 46 48 51 52 53 54 55 56 56 56 54 52 51 49 48 47 47 47
41 40 39 38 37 35 34 32 32 31 31 29 28 26 23 20 18 15 13 8 3 1 5 8 12 16 20 23 27 31 33 35 37 39 42 44 47 49 50 51 51 52 52 51 49 48 47 46 45 44 44 44 43 43
40 39 36 33 31 31 30 29 28 27 25 24 22 19 16 14 10 6 3 2 5 9 12 17 20 23 27 32 35 37 39 41 41 42 42 42 43 42 42 43 44 44 44 44 43 43 42 42 42 42 42 42 43 43
36 32 30 29 28 28 26 26 24 22 19 15 12 10 7 4 4 5 7 10 15 18 21 24 27 32 36 39 41 42 44 44 42 39 39 38 38 38 39 40 40 40 40 40 40 39 39 39 39 39 39 40 41 41
28 25 25 24 22 23 21 21 18 15 10 8 6 6 6 8 10 12 15 18 21 26 30 33 38 42 45 47 48 48 46 44 41 38 37 36 36 36 37 37 37 36 37 37 37 38 38 38 38 39 39 40 40 41
25 22 20 18 17 16 14 13 11 7 5 5 7 10 12 15 17 19 23 26 30 33 37 41 45 49 50 50 50 49 47 43 41 39 37 37 37 36 35 35 36 36 36 36 37 38 38 39 39 39 39 39 39 39
22 18 16 13 10 8 7 5 4 4 7 10 13 14 17 18 21 24 27 31 34 38 44 47 50 52 52 52 51 49 46 43 41 39 38 38 37 36 35 35 35 36 37 37 37 37 37 37 36 36 36 36 36 36
16 12 9 6 3 1 2 5 8 11 13 16 17 19 20 23 26 28 31 35 39 44 47 50 52 52 53 52 50 47 45 44 41 40 40 39 37 36 36 35 35 36 35 35 35 35 35 34 34 34 33 33 32 33
11 9 6 5 4 5 7 10 14 16 18 20 21 22 24 26 29 32 36 41 44 47 50 52 53 53 53 52 49 47 46 43 42 41 40 39 38 36 35 36 36 35 34 33 32 32 33 32 32 32 32 32 32 33
9 8 6 6 7 9 12 15 17 20 22 23 26 28 30 31 33 37 41 44 47 50 52 53 52 51 50 49 48 47 45 42 41 40 40 38 37 37 36 35 34 33 33 33 32 32 31 30 30 31 31 31 31 31
9 8 7 7 9 12 16 19 21 23 25 28 31 33 35 36 39 40 44 47 50 52 51 52 51 49 47 47 46 44 43 41 40 39 38 37 37 36 35 34 33 32 32 32 32 31 31 31 31 30 30 30 30 30
10 10 10 11 13 16 18 20 23 26 30 33 36 38 39 40 41 44 48 50 51 50 50 49 47 46 46 45 44 42 40 40 39 38 37 36 36 35 35 34 32 32 32 31 31 30 30 30 30 30 30 30 30 30
Wind_Direction
286 284 281 276 273 270 268 266 262 258 251 244 240 235 233 232 233 234 236 237 240 239 239 237 238 237 235 236 237 237 236 233 228 228 223 222 221 219 218 218 219 221 225 227 228 226 224 226 228 229 231 231 230 230
282 279 276 270 267 265 263 260 258 256 248 243 241 239 236 234 235 232 236 235 236 233 235 235 237 236 235 233 231 230 228 228 224 223 219 219 219 218 217 217 219 222 224 226 229 227 226 227 228 231 234 235 233 235
277 274 269 265 264 260 256 252 250 247 245 243 239 236 234 234 236 235 233 237 233 232 236 236 239 236 234 233 233 230 226 218 222 222 218 216 217 217 216 217 218 221 223 224 226 230 229 230 230 233 235 238 240 240
272 268 263 261 259 258 256 253 249 247 245 241 238 236 233 232 234 238 234 233 239 232 235 231 234 235 235 231 228 224 219 217 218 218 217 216 217 216 217 217 219 221 224 225 226 229 232 231 237 234 236 238 238 241
266 263 262 261 258 257 256 254 253 248 244 241 239 236 234 233 234 236 237 229 234 232 227 227 227 228 226 226 223 218 216 213 212 211 212 214 217 218 219 219 222 222 223 226 227 233 235 236 239 240 239 242 242 243
263 261 265 264 262 258 253 247 243 240 236 231 227 226 228 229 231 235 231 218 224 228 225 224 224 223 217 215 216 211 205 204 205 207 207 210 215 218 220 221 224 226 227 228 230 233 237 237 240 243 246 249 249 250
264 267 267 264 256 251 251 248 243 236 233 229 226 222 216 219 220 224 225 216 217 219 215 218 221 210 204 206 207 198 200 198 199 201 205 211 215 219 222 225 227 229 231 232 235 238 241 242 243 246 248 250 253 255
267 268 261 257 257 252 246 238 233 225 223 221 220 219 215 211 214 223 230 206 212 212 208 208 215 204 194 197 195 193 196 197 196 199 204 210 216 219 222 225 228 231 233 235 236 239 241 243 245 247 250 252 254 256
271 263 257 255 246 240 231 226 223 219 215 213 211 212 211 210 210 220 218 204 205 207 205 204 204 196 189 189 191 193 194 195 198 204 208 211 216 220 224 226 229 231 232 235 237 239 242 243 246 248 250 252 255 257
258 259 267 258 241 226 222 219 217 212 206 205 202 202 202 206 213 222 212 198 198 197 199 197 199 194 192 190 190 192 197 198 201 207 213 218 221 225 229 233 234 235 237 238 239 241 243 245 247 250 252 253 254 255
264 268 255 237 217 203 203 203 206 204 201 199 195 193 198 203 211 219 205 189 192 194 192 192 190 190 193 194 198 199 201 207 211 213 217 224 229 232 234 236 238 241 243 244 246 248 250 251 252 254 256 258 260 261
237 229 194 191 184 185 182 181 188 195 197 194 191 190 194 200 208 208 193 184 185 190 188 184 185 189 193 200 206 210 217 219 222 222 223 228 233 236 242 248 250 250 250 250 251 252 252 254 255 257 259 261 263 265
197 169 151 162 164 161 164 167 167 173 180 180 180 184 186 190 197 192 183 185 185 191 191 186 186 184 184 194 202 208 213 221 229 231 231 236 242 245 247 249 251 254 255 255 256 256 256 257 258 260 262 264 266 267
151 142 146 155 154 151 152 155 158 159 161 168 175 179 179 185 187 187 190 192 188 184 182 181 182 183 191 203 212 217 224 229 236 243 244 246 249 252 253 254 254 255 257 260 262 264 264 265 265 265 265 266 267 267
139 135 139 154 151 145 144 146 150 153 159 166 174 179 183 185 186 190 190 190 189 189 191 194 200 207 218 228 236 241 244 250 255 259 260 258 256 256 257 258 258 258 259 260 261 264 266 269 271 272 272 272 273 273
132 129 134 141 142 138 139 137 140 143 149 158 162 165 174 182 186 185 186 188 191 192 197 205 215 226 238 254 262 270 275 274 274 269 268 270 271 273 274 274 274 274 275 274 273 273 272 272 270 269 269 270 270 270
128 123 125 128 129 128 129 129 129 135 141 147 150 154 160 165 171 179 181 181 187 191 199 210 224 238 248 254 261 259 263 266 269 271 273 275 278 285 287 284 284 283 282 280 277 276 275 274 272 270 269 269 269 269
124 120 120 122 123 124 125 124 125 130 131 133 134 136 141 145 151 156 162 168 173 181 189 195 206 213 226 233 234 235 243 261 286 296 298 297 294 293 293 293 291 288 286 283 281 279 277 276 274 272 270 269 269 268
120 119 118 118 118 118 119 120 123 122 122 123 124 127 131 135 137 141 147 149 150 151 155 159 162 164 169 179 268 306 302 293 291 290 289 289 288 286 284 284 283 280 279 278 277 276 275 274 274 274 273 273 272 272
116 116 117 117 118 119 118 119 120 120 121 122 125 125 127 128 129 128 126 124 121 119 119 124 128 132 167 261 287 300 303 299 296 292 291 291 289 286 283 282 282 281 280 279 279 279 279 279 280 280 280 280 280 280
119 118 118 118 118 117 116 114 112 108 108 107 107 108 108 106 107 109 112 115 116 117 116 114 111 2 325 311 306 301 298 294 291 288 286 284 283 283 282 281 281 282 284 286 287 287 288 288 288 287 286 285 284 283
118 115 112 109 105 105 106 107 108 108 109 110 110 111 110 110 110 110 109 107 104 99 94 93 290 291 294 293 289 292 292 289 289 287 284 282 282 282 283 285 286 287 289 289 289 290 291 291 291 290 289 288 287 286
113 111 107 106 106 108 111 113 113 113 110 109 107 107 105 104 101 102 104 104 123 259 353 329 318 308 304 303 302 301 299 300 299 294 292 291 289 289 290 290 289 288 288 290 291 291 291 291 291 290 289 288 287 286
113 112 112 114 114 115 115 113 110 108 108 110 108 108 111 112 116 116 75 320 336 336 320 317 321 321 317 313 312 313 313 310 305 301 298 295 295 295 294 293 292 293 293 293 293 293 292 291 290 289 288 287 287 286
119 120 118 117 117 116 114 110 110 111 115 116 115 111 99 68 28 8 357 347 339 331 327 325 324 322 320 321 319 319 315 314 313 307 306 305 302 299 297 297 296 296 297 297 296 296 295 294 293 292 291 289 288 287
122 120 121 122 125 123 122 120 116 112 108 96 76 48 19 359 348 343 339 332 328 330 329 327 325 325 323 322 323 321 320 318 317 315 313 309 306 303 303 302 303 303 302 301 301 300 299 297 296 294 292 291 289 288
125 127 128 131 129 125 118 111 104 95 71 25 2 347 342 338 337 335 333 331 330 327 326 324 323 321 322 324 323 322 322 322 322 321 317 314 312 311 309 308 307 306 305 303 302 301 299 298 296 295 294 292 292 291
137 140 138 138 129 115 103 86 53 6 346 337 331 326 326 330 330 329 326 325 325 323 321 321 321 321 323 322 322 322 323 324 324 321 320 318 316 314 312 311 309 308 307 306 304 303 302 300 300 299 298 296 295 293
149 157 157 155 165 207 332 344 334 326 321 320 323 323 324 324 323 322 322 321 320 318 317 318 319 321 321 321 322 323 324 325 324 323 321 320 319 316 314 313 312 311 309 308 306 306 306 306 305 304 303 301 300 298
174 186 207 238 278 308 315 313 310 308 308 311 313 314 316 319 319 320 318 316 315 316 316 318 319 320 320 321 322 323 323 324 322 320 320 320 318 318 316 315 315 313 312 312 311 311 310 310 308 307 305 302 300 299
222 235 249 269 290 301 305 306 305 306 309 312 314 317 318 316 314 314 315 315 315 316 318 318 319 320 320 320 321 321 321 322 320 321 321 321 320 320 319 318 317 317 317 317 317 316 315 313 311 310 308 306 305 304
240 248 260 279 294 301 303 305 306 308 311 313 314 313 311 309 312 314 314 315 315 316 318 318 318 319 318 318 320 321 322 321 321 321 321 321 321 322 321 321 321 321 321 321 321 320 318 317 316 314 313 311 311 311
241 260 273 281 289 298 306 309 308 308 310 311 312 312 311 312 314 314 315 315 316 318 318 318 318 318 318 319 320 322 321 321 321 321 322 323 324 323 324 324 324 325 324 323 322 321 320 319 318 318 318 317 314 313
Height
10078 10077 10075 10074 10074 10074 10074 10074 10075 10077 10078 10080 10083 10086 10089 10093 10097 10102 10108 10112 10117 10127 10131 10135 10139 10143 10150 10155 10162 10168 10174 10180 10188 10195 10205 10213 10223 10233 10243 10253 10264 10277 10288 10300 10310 10323 10333 10336 10338 10348 10349 10359 10370 10378
10068 10066 10066 10066 10066 10067 10068 10069 10070 10071 10073 10075 10077 10081 10083 10087 10090 10096 10099 10106 10111 10120 10121 10126 10130 10136 10140 10145 10150 10155 10161 10170 10178 10182 10191 10201 10210 10220 10231 10243 10255 10268 10278 10287 10298 10307 10312 10318 10323 10330 10339 10343 10356 10363
10057 10056 10057 10058 10058 10059 10060 10061 10063 10065 10067 10070 10072 10075 10078 10082 10084 10088 10095 10100 10107 10112 10113 10119 10126 10129 10133 10137 10142 10147 10154 10160 10165 10174 10180 10189 10198 10209 10220 10230 10241 10252 10264 10277 10284 10291 10299 10301 10307 10314 10322 10325 10338 10341
10046 10047 10047 10048 10049 10050 10052 10053 10056 10058 10061 10064 10067 10070 10073 10077 10080 10084 10090 10097 10100 10105 10107 10113 10115 10120 10126 10130 10133 10140 10145 10151 10157 10163 10171 10180 10191 10201 10210 10221 10232 10242 10253 10264 10272 10272 10271 10286 10292 10304 10304 10311 10320 10323
10036 10037 10038 10038 10039 10040 10043 10046 10048 10050 10053 10057 10061 10065 10068 10071 10076 10080 10086 10093 10095 10098 10103 10105 10110 10114 10118 10123 10128 10134 10139 10145 10151 10158 10166 10175 10186 10196 10205 10215 10217 10228 10240 10248 10258 10257 10265 10275 10277 10285 10290 10295 10302 10305
10027 10027 10028 10029 10030 10031 10032 10033 10035 10038 10041 10046 10051 10056 10061 10066 10071 10077 10082 10086 10089 10094 10098 10102 10105 10110 10114 10118 10124 10129 10134 10140 10146 10152 10160 10169 10177 10188 10197 10203 10211 10223 10231 10239 10244 10242 10247 10262 10262 10268 10274 10277 10283 10287
10018 10019 10019 10019 10019 10019 10020 10022 10025 10029 10033 10037 10043 10048 10053 10060 10066 10070 10073 10081 10088 10091 10096 10099 10103 10106 10111 10116 10121 10127 10130 10136 10142 10150 10158 10166 10173 10182 10188 10197 10204 10212 10218 10225 10228 10232 10242 10246 10249 10252 10255 10257 10262 10267
10010 10010 10010 10010 10010 10011 10012 10014 10016 10020 10023 10029 10035 10041 10047 10054 10061 10064 10067 10080 10084 10087 10092 10097 10101 10105 10109 10113 10118 10123 10128 10133 10139 10145 10152 10160 10168 10173 10181 10186 10192 10199 10206 10210 10214 10221 10225 10228 10233 10233 10237 10240 10244 10246
10003 10003 10002 10003 10003 10004 10005 10007 10009 10012 10017 10023 10029 10035 10042 10049 10053 10056 10066 10075 10080 10085 10091 10095 10100 10104 10108 10113 10118 10123 10126 10131 10138 10143 10149 10156 10162 10166 10169 10175 10178 10183 10189 10193 10199 10207 10207 10211 10214 10215 10219 10222 10225 10226
9997 9997 9997 9996 9997 9998 10000 10002 10004 10009 10013 10018 10025 10030 10037 10042 10047 10050 10063 10073 10079 10085 10090 10094 10098 10103 10108 10112 10116 10121 10126 10131 10136 10142 10146 10151 10156 10159 10162 10165 10169 10173 10177 10182 10186 10189 10192 10196 10198 10199 10201 10203 10204 10205
9992 9992 9993 9993 9993 9994 9996 9999 10001 10005 10010 10015 10020 10026 10032 10038 10042 10048 10062 10074 10080 10084 10088 10092 10096 10101 10105 10110 10115 10119 10124 10127 10133 10138 10143 10146 10147 10150 10152 10155 10158 10163 10168 10172 10177 10179 10180 10182 10184 10183 10184 10184 10185 10186
9989 9990 9990 9991 9992 9993 9995 9997 10000 10004 10008 10013 10019 10024 10029 10035 10042 10051 10064 10073 10078 10083 10087 10091 10095 10100 10104 10108 10113 10117 10121 10126 10128 10133 10137 10139 10139 10140 10144 10148 10152 10155 10157 10160 10163 10164 10165 10165 10165 10166 10166 10165 10166 10167
9988 9988 9990 9990 9992 9993 9995 9998 10001 10005 10010 10015 10020 10024 10029 10036 10044 10053 10063 10070 10076 10080 10085 10091 10096 10100 10104 10108 10112 10115 10118 10120 10124 10127 10131 10131 10132 10137 10139 10140 10141 10141 10142 10144 10146 10147 10147 10147 10147 10148 10148 10147 10147 10147
9988 9989 9990 9992 9993 9995 9997 10000 10003 10006 10011 10016 10020 10024 10030 10035 10042 10048 10055 10063 10073 10082 10087 10093 10097 10101 10104 10107 10110 10113 10116 10119 10120 10122 10125 10127 10128 10127 10129 10130 10131 10131 10131 10131 10130 10130 10130 10130 10131 10131 10130 10129 10128 10128
9989 9990 9993 9995 9996 9998 10001 10003 10006 10010 10013 10018 10022 10027 10032 10038 10044 10052 10060 10067 10074 10081 10087 10092 10097 10100 10102 10105 10107 10111 10113 10114 10116 10116 10117 10118 10119 10119 10118 10118 10118 10118 10118 10118 10118 10117 10116 10116 10114 10114 10112 10111 10109 10109
9993 9994 9997 9999 10001 10002 10005 10008 10011 10015 10018 10021 10025 10030 10035 10041 10046 10052 10059 10066 10074 10082 10087 10091 10094 10097 10100 10101 10104 10106 10107 10108 10109 10109 10109 10110 10110 10110 10110 10110 10109 10109 10108 10107 10106 10105 10104 10103 10102 10101 10099 10097 10096 10094
9998 9999 10002 10004 10006 10008 10011 10014 10017 10020 10023 10027 10031 10035 10040 10045 10050 10057 10064 10070 10077 10082 10087 10091 10094 10097 10100 10101 10102 10103 10104 10105 10106 10106 10105 10105 10105 10105 10104 10103 10102 10100 10099 10097 10095 10093 10091 10089 10088 10086 10084 10083 10081 10078
10003 10005 10008 10010 10012 10015 10018 10020 10024 10027 10030 10034 10038 10042 10047 10052 10057 10062 10068 10074 10079 10084 10088 10092 10095 10098 10100 10102 10103 10104 10104 10104 10104 10104 10103 10102 10100 10098 10096 10094 10092 10090 10087 10084 10082 10079 10077 10074 10072 10070 10068 10066 10064 10062
10010 10013 10015 10018 10019 10022 10025 10028 10032 10035 10038 10042 10046 10051 10055 10060 10064 10069 10074 10079 10084 10089 10093 10096 10099 10101 10102 10103 10103 10103 10103 10102 10102 10100 10099 10097 10094 10092 10089 10086 10083 10079 10076 10073 10070 10067 10064 10061 10058 10056 10054 10051 10049 10047
10018 10021 10023 10026 10028 10031 10034 10037 10042 10045 10049 10053 10057 10060 10064 10068 10073 10077 10082 10086 10091 10094 10097 10100 10102 10103 10104 10104 10104 10103 10101 10100 10098 10095 10092 10089 10086 10082 10078 10074 10070 10066 10063 10060 10056 10053 10050 10047 10044 10041 10038 10036 10033 10031
10027 10030 10034 10037 10039 10042 10045 10048 10052 10055 10060 10064 10068 10071 10075 10079 10083 10087 10091 10094 10098 10100 10102 10104 10104 10104 10104 10103 10101 10100 10097 10095 10092 10088 10084 10080 10075 10071 10066 10061 10057 10052 10048 10044 10040 10037 10033 10029 10026 10023 10021 10018 10015 10013
10037 10040 10043 10047 10050 10053 10056 10060 10064 10067 10071 10074 10078 10081 10085 10088 10092 10095 10098 10100 10102 10103 10104 10104 10104 10103 10102 10100 10098 10095 10092 10088 10083 10078 10073 10067 10062 10057 10051 10046 10042 10037 10033 10028 10023 10019 10016 10012 10008 10005 10002 9999 9997 9995
10046 10050 10053 10056 10060 10065 10068 10071 10074 10077 10080 10084 10087 10090 10093 10096 10098 10101 10102 10104 10104 10104 10104 10103 10101 10100 10097 10094 10090 10086 10081 10076 10070 10064 10058 10052 10047 10042 10037 10031 10026 10021 10016 10012 10008 10004 10000 9997 9993 9990 9987 9984 9982 9979
10055 10059 10063 10067 10072 10075 10078 10081 10083 10086 10089 10092 10095 10097 10100 10101 10102 10103 10104 10104 10103 10102 10101 10099 10096 10093 10089 10084 10079 10074 10069 10062 10055 10049 10044 10038 10033 10028 10022 10016 10011 10007 10002 9998 9994 9990 9987 9983 9980 9976 9973 9970 9967 9964
10066 10070 10074 10077 10080 10083 10086 10088 10091 10094 10096 10098 10100 10101 10103 10103 10103 10103 10102 10101 10099 10097 10095 10092 10089 10085 10080 10075 10069 10063 10056 10048 10042 10036 10030 10025 10019 10013 10008 10003 9998 9993 9989 9985 9981 9977 9974 9970 9967 9963 9960 9957 9953 9950
10076 10080 10082 10085 10088 10090 10092 10093 10096 10098 10100 10101 10102 10102 10103 10102 10102 10100 10099 10097 10095 10092 10088 10085 10080 10075 10069 10063 10056 10049 10042 10035 10029 10023 10018 10012 10007 10001 9996 9991 9986 9982 9977 9973 9969 9965 9961 9957 9953 9950 9947 9943 9940 9936
10083 10087 10089 10091 10093 10094 10096 10098 10099 10101 10102 10102 10102 10102 10101 10100 10098 10097 10094 10092 10089 10085 10081 10076 10071 10065 10058 10051 10044 10036 10029 10023 10018 10012 10006 10000 9995 9990 9985 9980 9975 9971 9967 9962 9957 9953 9949 9945 9941 9937 9933 9929 9926 9922
10087 10090 10092 10094 10096 10098 10099 10100 10101 10101 10101 10101 10101 10100 10099 10097 10095 10093 10090 10087 10083 10079 10073 10068 10061 10054 10047 10039 10032 10025 10019 10013 10007 10001 9996 9991 9985 9980 9975 9971 9966 9961 9955 9951 9946 9942 9937 9933 9928 9924 9920 9916 9913 9909
10090 10093 10095 10097 10098 10099 10100 10100 10100 10100 10100 10099 10098 10097 10095 10093 10091 10088 10085 10081 10076 10071 10064 10058 10051 10044 10036 10029 10022 10015 10009 10004 9998 9992 9986 9981 9976 9971 9965 9960 9955 9951 9946 9941 9936 9931 9926 9921 9917 9912 9908 9904 9900 9897
10093 10095 10097 10098 10098 10099 10099 10099 10099 10098 10098 10097 10095 10093 10091 10089 10086 10082 10078 10073 10067 10061 10054 10048 10040 10033 10026 10019 10012 10006 10000 9994 9988 9983 9978 9973 9967 9962 9956 9951 9946 9940 9936 9931 9926 9921 9915 9911 9906 9902 9898 9894 9890 9886
10094 10095 10096 10097 10097 10097 10097 10097 10096 10095 10094 10092 10090 10087 10085 10083 10079 10075 10069 10063 10057 10050 10043 10037 10030 10023 10016 10009 10003 9997 9991 9986 9980 9974 9969 9963 9958 9952 9947 9941 9936 9931 9926 9920 9916 9911 9906 9902 9898 9893 9889 9885 9881 9877
10093 10094 10095 10095 10095 10095 10095 10094 10092 10090 10088 10086 10084 10081 10079 10075 10071 10066 10059 10053 10046 10040 10034 10027 10020 10014 10007 10000 9994 9987 9982 9977 9971 9966 9960 9955 9950 9944 9938 9933 9928 9922 9917 9912 9906 9902 9897 9893 9888 9884 9880 9876 9872 9867
10091 10091 10092 10092 10092 10091 10090 10089 10087 10084 10082 10079 10076 10073 10069 10065 10061 10055 10049 10042 10036 10030 10024 10017 10010 10004 9997 9991 9985 9979 9974 9968 9963 9958 9952 9947 9941 9936 9930 9925 9920 9914 9909 9904 9899 9894 9890 9885 9880 9876 9871 9867 9862 9858